Content
SEND FEEDBACK

Daily
Averages
Monthly
Summary
Greece

KATO AKHAIA, GREECE


Home > Europe > Greece
Elevation: 50 feet     Latitude: 38 09N     Longitude: 021 25E

WEATHER
 
SELECT A DAY
Number of Records: 74,906;   Date Range: 1/10/97 - 11/21/14
 
SHARE

PRINT THIS DATA

[ ← Previous Day ]
WEATHER ALMANAC - JANUARY 31, 2013
[ Next Day → ]
[ °C ]   °F
Weather ElementAverageHighLow
Temperature50.1 °F60.8 °F (1:20 pm)37.4 °F (5:50 am)
Dewpoint45 °F51.8 °F (1:50 pm)35.6 °F (7:50 am)
Humidity83.7 %100 % (1:50 am)67 % (3:20 pm)
Barometer29.96 in30.01 in (1:50 am)29.92 in (2:50 pm)
Wind Speed1.7 mph9.2 mph (2:20 pm)
Weather ElementAverage
Visibility6.2 mi
Wind DirectionNE (46.7 °)

Weather ElementTotal
Precipitation---
Heating Degree Days15.9 (Base 65)
Averaged from 36 records on January 31, 2013
WEATHER CONDITIONS BREAKOUT
WIND DIRECTION BREAKOUT
WEATHER BY HOUR - JANUARY 31, 2013
[ °C ]   °F
Local TimeTemperatureDewpointHumidityBarometerVisibilityWind DirectionWind SpeedGust SpeedPrecipitationEventsConditions
1:50 AM39.2 °F39.2 °F100 %30.01 inCalmClear
2:50 AM39.2 °F39.2 °F100 %29.98 inVariable2.3 mphClear
4:50 AM39.2 °F39.2 °F100 %29.98 inVariable2.3 mphClear
5:20 AM39.2 °F39.2 °F100 %29.95 inCalmClear
5:50 AM37.4 °F37.4 °F100 %29.95 inCalmClear
6:20 AM37.4 °F37.4 °F100 %29.98 inCalmClear
6:50 AM37.4 °F37.4 °F100 %29.98 inCalmClear
7:20 AM37.4 °F37.4 °F100 %29.98 inCalmClear
7:50 AM37.4 °F35.6 °F93 %29.98 inCalmClear
8:20 AM39.2 °F37.4 °F93 %29.98 inCalmClear
8:50 AM41.0 °F39.2 °F93 %29.98 inCalmClear
9:20 AM46.4 °F41.0 °F81 %29.95 inCalmClear
9:50 AM51.8 °F44.6 °F76 %29.98 in6.2 miCalmPartly Cloudy
10:20 AM53.6 °F48.2 °F82 %29.98 in6.2 miCalmPartly Cloudy
10:50 AM55.4 °F46.4 °F72 %29.98 in6.2 miCalmPartly Cloudy
11:20 AM57.2 °F50.0 °F77 %29.98 in6.2 miCalmScattered Clouds
11:50 AM57.2 °F50.0 °F77 %29.98 in6.2 miCalmPartly Cloudy
12:20 PM57.2 °F50.0 °F77 %29.98 in6.2 miCalmPartly Cloudy
12:50 PM59.0 °F50.0 °F72 %29.98 in6.2 miCalmPartly Cloudy
1:20 PM60.8 °F50.0 °F68 %29.95 in6.2 miCalmPartly Cloudy
1:50 PM60.8 °F51.8 °F72 %29.95 in6.2 miVariable3.5 mphScattered Clouds
2:20 PM59.0 °F50.0 °F72 %29.98 in6.2 miWest (280°)9.2 mphScattered Clouds
2:50 PM59.0 °F51.8 °F77 %29.92 in6.2 miWest (270°)8.1 mphScattered Clouds
3:20 PM59.0 °F48.2 °F67 %29.92 in6.2 miWest (270°)8.1 mphMostly Cloudy
3:50 PM59.0 °F50.0 °F72 %29.92 in6.2 miWest (280°)9.2 mphMostly Cloudy
4:20 PM59.0 °F50.0 °F72 %29.92 in6.2 miWest (280°)9.2 mphMostly Cloudy
4:50 PM59.0 °F48.2 °F67 %29.92 in6.2 miCalmScattered Clouds
5:20 PM59.0 °F48.2 °F67 %29.92 in6.2 miWNW (300°)4.6 mphPartly Cloudy
5:50 PM57.2 °F50.0 °F77 %29.92 in6.2 miVariable3.5 mphPartly Cloudy
6:20 PM55.4 °F48.2 °F77 %29.92 in6.2 miCalmPartly Cloudy
6:50 PM53.6 °F48.2 °F82 %29.92 in6.2 miCalmPartly Cloudy
7:20 PM50.0 °F48.2 °F94 %29.95 inCalmClear
7:50 PM51.8 °F46.4 °F82 %29.98 in6.2 miCalmPartly Cloudy
8:50 PM48.2 °F46.4 °F93 %29.98 inCalmClear
9:50 PM46.4 °F44.6 °F93 %30.01 inCalmClear
11:50 PM44.6 °F41.0 °F87 %30.01 inCalmClear
Hourly data recorded from LGRX, located miles away from Kato Akhaia, Greece







STORIES FROM OUR PARTNERS